Regional Weather Roundup
Issued by NWS Sioux Falls, SD

Home | Current Version | Previous Version | Text Only | Print | Product List | Glossary Off
Versions: 1 2 3 4 5 6 7 8 9 10 11 12 13 14 15 16 17 18 19 20 21 22 23 24 25 26 27 28 29 30 31 32 33 34 35 36 37 38 39 40 41 42 43 44 45 46 47 48 49 50

000
ASUS43 KFSD 171910
RWRFSD

WEATHER ROUNDUP FOR SE SOUTH DAKOTA/SW MINNESOTA/NW IOWA
NATIONAL WEATHER SERVICE SIOUX FALLS SD
200 PM CDT THU AUG 17 2017

NOTE: "FAIR" INDICATES FEW OR NO CLOUDS BELOW 12,000 FEET WITH NO
SIGNIFICANT WEATHER AND OR OBSTRUCTIONS TO VISIBILITY.


SDZ038>040-050-052>070-172000-
SOUTHEAST SOUTH DAKOTA

CITY           SKY/WX    TMP DP  RH WIND       PRES   REMARKS
BROOKINGS      MOSUNNY   74  62  66 NW17G24   29.89S
CHAMBERLAIN    SUNNY     80  58  46 E6        29.92F
HURON          SUNNY     78  59  51 NW7       29.90F
MADISON        FAIR      73  63  68 NW16      29.91S
MITCHELL       SUNNY     78  59  51 NW7       29.91F
SIOUX FALLS    MOSUNNY   78  61  55 NW17G26   29.89S
WINNER         FAIR      86  55  34 S12       29.92F
YANKTON        SUNNY     78  58  49 NW14      29.93S
$$

MNZ071-072-080-081-089-090-097-098-172000-
SOUTHWEST MINNESOTA

CITY           SKY/WX    TMP DP  RH WIND       PRES   REMARKS
FAIRMONT       CLOUDY    69  62  78 W20       29.82S
JACKSON        CLOUDY    70  61  73 NW13      29.85S
LUVERNE        SUNNY     75  57  53 N16       29.87F
MARSHALL       PTSUNNY   72  64  76 NW15G23   29.85R
MONTEVIDEO     PTSUNNY   72  72 100 N13       29.83S
PIPESTONE      MOSUNNY   75  61  60 N17       29.88S
REDWOOD FALLS  CLOUDY    69  61  75 NW15G22   29.82R
TRACY          CLOUDY    72  66  82 NW16      29.85S
WINDOM         SUNNY     70  63  78 NW15G22   29.84S
WORTHINGTON    MOSUNNY   74  63  68 NW17G26   29.86F
$$

IAZ001>003-012>014-020>022-031-032-NEZ013-014-SDZ071-172000-
NORTHWEST IOWA

CITY           SKY/WX    TMP DP  RH WIND       PRES   REMARKS
CHEROKEE       PTSUNNY   77  63  60 NW12G20   29.87F
DENISON        SUNNY     77  61  57 W16       29.91R
ESTHERVILLE    PTSUNNY   69  63  81 NW12G22   29.83S
LE MARS        SUNNY     77  59  53 NW17G24   29.89S
ORANGE CITY    SUNNY     79  64  61 NW16      29.88F
SHELDON        MOSUNNY   75  63  64 NW13G21   29.86S
SIOUX CITY     SUNNY     79  61  53 NW14G22   29.89F
SPENCER        PTSUNNY   76  62  62 NW21G28   29.86R
STORM LAKE       N/A     73  63  68 NW17G23   29.88S
$$

ABBREVIATIONS USED IN REMARKS
   TC - TEMPERATURE IN CELSIUS
  WCI - WIND CHILL INDEX
   HX - HEAT INDEX
  VSB - VISIBILITY




USA.gov is the U.S. government's official web portal to all federal, state and local government web resources and services.